NKS556 KPIT-KFLL

Flight info

Callsign NKS556
Flight time 2h 27m
Altitude 36000
Route CKB COBBE DANCO Q103 SLOJO EFFAY Q83 JEVED Q97 PRMUS CUUDA3
Aircraft A320/M-SDE3FGHIRWY/LB1

Departure

Time 2026-05-04 00:34
Airport Pittsburgh International Airport (KPIT)

Arrival

Time 2026-05-04 03:02
Airport Fort Lauderdale Hollywood International Airport (KFLL)
Time Latitude Longitude Altitude Speed Heading
2026-05-04 00:00 40.49458 -80.24405 1159 ft 0 kts 223°
2026-05-04 00:26 40.49461 -80.24401 1159 ft 2 kts 223°
2026-05-04 00:27 40.49473 -80.24386 1157 ft 2 kts 223°
2026-05-04 00:27 40.49485 -80.24372 1158 ft 2 kts 223°
2026-05-04 00:27 40.49496 -80.24357 1160 ft 2 kts 223°
2026-05-04 00:27 40.49503 -80.24348 1162 ft 0 kts 223°
2026-05-04 00:28 40.49503 -80.24349 1162 ft 1 kts 223°
2026-05-04 00:28 40.49480 -80.24353 1159 ft 7 kts 167°
2026-05-04 00:28 40.49436 -80.24287 1156 ft 12 kts 122°
2026-05-04 00:28 40.49415 -80.24175 1156 ft 13 kts 92°
2026-05-04 00:29 40.49412 -80.24056 1156 ft 13 kts 92°
2026-05-04 00:29 40.49411 -80.23939 1157 ft 13 kts 85°
2026-05-04 00:29 40.49469 -80.23889 1161 ft 10 kts
2026-05-04 00:29 40.49557 -80.23884 1164 ft 15 kts
2026-05-04 00:30 40.49666 -80.23879 1171 ft 16 kts
2026-05-04 00:30 40.49776 -80.23875 1178 ft 14 kts
2026-05-04 00:30 40.49885 -80.23871 1161 ft 24 kts
2026-05-04 00:30 40.50033 -80.23844 1154 ft 5 kts 55°
2026-05-04 00:31 40.50037 -80.23783 1153 ft 9 kts 90°
2026-05-04 00:31 40.50036 -80.23693 1153 ft 11 kts 91°
2026-05-04 00:31 40.50034 -80.23589 1153 ft 12 kts 91°
2026-05-04 00:31 40.50031 -80.23471 1153 ft 13 kts 91°
2026-05-04 00:32 40.50037 -80.23366 1152 ft 0 kts 55°
2026-05-04 00:32 40.50037 -80.23365 1152 ft 1 kts 53°
2026-05-04 00:33 40.50054 -80.23361 1152 ft 6 kts
2026-05-04 00:33 40.50141 -80.23507 1150 ft 17 kts 271°
2026-05-04 00:33 40.50149 -80.23902 1151 ft 76 kts 272°
2026-05-04 00:34 40.50174 -80.24846 1151 ft 128 kts 271°
2026-05-04 00:34 40.50203 -80.26208 1177 ft 167 kts 271°
2026-05-04 00:34 40.50246 -80.27734 1779 ft 166 kts 270°
2026-05-04 00:34 40.50305 -80.29239 2501 ft 165 kts 265°
2026-05-04 00:35 40.49983 -80.30740 2752 ft 182 kts 234°
2026-05-04 00:35 40.48930 -80.31747 2977 ft 209 kts 198°
2026-05-04 00:35 40.47379 -80.31963 3329 ft 237 kts 184°
2026-05-04 00:35 40.45671 -80.31902 3973 ft 250 kts 181°
2026-05-04 00:36 40.43915 -80.31758 4791 ft 256 kts 181°
2026-05-04 00:36 40.42125 -80.31608 5652 ft 259 kts 181°
2026-05-04 00:36 40.40309 -80.31475 6495 ft 263 kts 182°
2026-05-04 00:36 40.38462 -80.31360 7266 ft 268 kts 182°
2026-05-04 00:37 40.36583 -80.31259 8030 ft 272 kts 182°
2026-05-04 00:37 40.34696 -80.31171 8763 ft 277 kts 182°
2026-05-04 00:37 40.32752 -80.31086 9517 ft 283 kts 182°
2026-05-04 00:37 40.30764 -80.31003 10231 ft 288 kts 182°
2026-05-04 00:38 40.28693 -80.30921 10497 ft 310 kts 182°
2026-05-04 00:38 40.26464 -80.30839 10745 ft 328 kts 181°
2026-05-04 00:38 40.24153 -80.30748 11314 ft 335 kts 181°
2026-05-04 00:38 40.21812 -80.30651 11958 ft 339 kts 181°
2026-05-04 00:39 40.19444 -80.30550 12603 ft 343 kts 182°
2026-05-04 00:39 40.17047 -80.30449 13251 ft 346 kts 182°
2026-05-04 00:39 40.14656 -80.30351 13868 ft 350 kts 182°
2026-05-04 00:39 40.12214 -80.30251 14435 ft 353 kts 182°
2026-05-04 00:40 40.09742 -80.30151 14999 ft 356 kts 182°
2026-05-04 00:40 40.07255 -80.30049 15567 ft 359 kts 182°
2026-05-04 00:40 40.04749 -80.29948 16081 ft 363 kts 182°
2026-05-04 00:40 40.02218 -80.29847 16620 ft 366 kts 182°
2026-05-04 00:41 39.99660 -80.29747 17171 ft 369 kts 182°
2026-05-04 00:41 39.97081 -80.29644 17714 ft 373 kts 183°
2026-05-04 00:41 39.94514 -80.29541 18278 ft 375 kts 183°
2026-05-04 00:41 39.91900 -80.29436 18749 ft 379 kts 183°
2026-05-04 00:42 39.89248 -80.29330 19253 ft 382 kts 183°
2026-05-04 00:42 39.86581 -80.29224 19756 ft 384 kts 183°
2026-05-04 00:42 39.83895 -80.29114 20236 ft 387 kts 184°
2026-05-04 00:42 39.81196 -80.29005 20678 ft 392 kts 184°
2026-05-04 00:43 39.78466 -80.28899 21130 ft 395 kts 184°
2026-05-04 00:43 39.75702 -80.28787 21600 ft 397 kts 184°
2026-05-04 00:43 39.72976 -80.28675 22051 ft 400 kts 184°
2026-05-04 00:43 39.70189 -80.28562 22514 ft 402 kts 185°
2026-05-04 00:44 39.67382 -80.28451 22970 ft 405 kts 185°
2026-05-04 00:44 39.64553 -80.28341 23413 ft 407 kts 185°
2026-05-04 00:44 39.61721 -80.28233 23802 ft 409 kts 185°
2026-05-04 00:44 39.58862 -80.28121 24122 ft 413 kts 185°
2026-05-04 00:45 39.55974 -80.28003 24464 ft 416 kts 186°
2026-05-04 00:45 39.53085 -80.27883 24831 ft 418 kts 186°
2026-05-04 00:45 39.50205 -80.27764 25207 ft 420 kts 186°
2026-05-04 00:45 39.47276 -80.27647 25579 ft 421 kts 186°
2026-05-04 00:46 39.44341 -80.27531 25946 ft 423 kts 186°
2026-05-04 00:46 39.41395 -80.27416 26303 ft 425 kts 186°
2026-05-04 00:46 39.38426 -80.27301 26637 ft 427 kts 187°
2026-05-04 00:46 39.35455 -80.27187 26991 ft 429 kts 187°
2026-05-04 00:47 39.32457 -80.27071 27328 ft 431 kts 187°
2026-05-04 00:47 39.29454 -80.26951 27674 ft 434 kts 187°
2026-05-04 00:47 39.26438 -80.26895 28014 ft 431 kts 192°
2026-05-04 00:47 39.23493 -80.27332 28357 ft 422 kts 200°
2026-05-04 00:48 39.20670 -80.28161 28699 ft 421 kts 202°
2026-05-04 00:48 39.17807 -80.29021 29048 ft 423 kts 202°
2026-05-04 00:48 39.14930 -80.29877 29341 ft 426 kts 202°
2026-05-04 00:48 39.12039 -80.30731 29678 ft 428 kts 202°
2026-05-04 00:49 39.09124 -80.31587 30008 ft 430 kts 202°
2026-05-04 00:49 39.06204 -80.32443 30357 ft 430 kts 202°
2026-05-04 00:49 39.03291 -80.33297 30775 ft 429 kts 202°
2026-05-04 00:49 39.00385 -80.34149 31192 ft 428 kts 202°
2026-05-04 00:50 38.97495 -80.34999 31626 ft 426 kts 203°
2026-05-04 00:50 38.94604 -80.35850 32014 ft 425 kts 203°
2026-05-04 00:50 38.91732 -80.36693 32455 ft 423 kts 203°
2026-05-04 00:50 38.88905 -80.37523 32895 ft 422 kts 203°
2026-05-04 00:51 38.86050 -80.38362 33331 ft 420 kts 203°
2026-05-04 00:51 38.83200 -80.39200 33765 ft 419 kts 203°
2026-05-04 00:51 38.80369 -80.40035 34179 ft 417 kts 204°
2026-05-04 00:51 38.77549 -80.40867 34513 ft 416 kts 203°
2026-05-04 00:52 38.74726 -80.41698 34825 ft 415 kts 203°
2026-05-04 00:52 38.71911 -80.42518 35064 ft 415 kts 202°
2026-05-04 00:52 38.69092 -80.43339 35343 ft 415 kts 202°
2026-05-04 00:52 38.66318 -80.44150 35632 ft 414 kts 202°
2026-05-04 00:53 38.63474 -80.44979 35927 ft 414 kts 202°
2026-05-04 00:53 38.60704 -80.45786 36072 ft 415 kts 202°
2026-05-04 00:53 38.57883 -80.46611 36083 ft 416 kts 202°
2026-05-04 00:54 38.52241 -80.48260 36088 ft 417 kts 202°
2026-05-04 00:54 38.46588 -80.49906 36092 ft 416 kts 202°
2026-05-04 00:55 38.40949 -80.51554 36097 ft 415 kts 202°
2026-05-04 00:55 38.35327 -80.53103 36100 ft 421 kts 197°
2026-05-04 00:56 38.29479 -80.53952 36103 ft 424 kts 196°
2026-05-04 00:56 38.23612 -80.54783 36070 ft 424 kts 195°
2026-05-04 00:57 38.17750 -80.55642 36092 ft 424 kts 196°
2026-05-04 00:57 38.11899 -80.56505 36096 ft 423 kts 196°
2026-05-04 00:58 38.06038 -80.57366 36102 ft 424 kts 195°
2026-05-04 00:58 38.00222 -80.58205 36110 ft 424 kts 195°
2026-05-04 00:59 37.94356 -80.59045 36092 ft 424 kts 195°
2026-05-04 00:59 37.88507 -80.59894 36089 ft 423 kts 196°
2026-05-04 01:00 37.82652 -80.60749 36091 ft 424 kts 195°
2026-05-04 01:00 37.76790 -80.61584 36080 ft 424 kts 195°
2026-05-04 01:01 37.70984 -80.62428 36098 ft 423 kts 196°
2026-05-04 01:01 37.65141 -80.63265 36113 ft 422 kts 195°
2026-05-04 01:02 37.59301 -80.64087 36113 ft 422 kts 195°
2026-05-04 01:02 37.53461 -80.64912 36089 ft 422 kts 195°
2026-05-04 01:03 37.47642 -80.65748 36105 ft 421 kts 195°
2026-05-04 01:03 37.41864 -80.66582 36099 ft 420 kts 195°
2026-05-04 01:04 37.36051 -80.67418 36104 ft 420 kts 195°
2026-05-04 01:04 37.30247 -80.68240 36081 ft 419 kts 195°
2026-05-04 01:05 37.24452 -80.69068 36091 ft 419 kts 195°
2026-05-04 01:05 37.18655 -80.69889 36099 ft 419 kts 195°
2026-05-04 01:06 37.12914 -80.70701 36099 ft 418 kts 195°
2026-05-04 01:06 37.07089 -80.71269 36059 ft 427 kts 188°
2026-05-04 01:07 37.01148 -80.71120 36067 ft 427 kts 188°
2026-05-04 01:07 36.95200 -80.70966 36078 ft 428 kts 188°
2026-05-04 01:08 36.89255 -80.70829 36090 ft 427 kts 188°
2026-05-04 01:08 36.83307 -80.70694 36071 ft 427 kts 188°
2026-05-04 01:09 36.77360 -80.70554 36087 ft 427 kts 188°
2026-05-04 01:09 36.72419 -80.70439 36095 ft 427 kts 188°
2026-05-04 01:10 36.65506 -80.70278 36098 ft 427 kts 188°
2026-05-04 01:10 36.60529 -80.70167 36052 ft 427 kts 187°
2026-05-04 01:11 36.54634 -80.70025 36055 ft 427 kts 187°
2026-05-04 01:11 36.48705 -80.69883 36068 ft 426 kts 187°
2026-05-04 01:12 36.42766 -80.69745 36063 ft 426 kts 187°
2026-05-04 01:12 36.36843 -80.69617 36044 ft 426 kts 187°
2026-05-04 01:13 36.30909 -80.69478 36050 ft 426 kts 187°
2026-05-04 01:13 36.24972 -80.69326 36057 ft 427 kts 187°
2026-05-04 01:14 36.19049 -80.69186 36061 ft 426 kts 187°
2026-05-04 01:14 36.13148 -80.69047 36018 ft 427 kts 187°
2026-05-04 01:15 36.07210 -80.68917 36033 ft 427 kts 187°
2026-05-04 01:15 36.01278 -80.68792 36048 ft 427 kts 187°
2026-05-04 01:16 35.95342 -80.68654 36057 ft 427 kts 187°
2026-05-04 01:16 35.89404 -80.68505 36060 ft 427 kts 187°
2026-05-04 01:17 35.83512 -80.68362 36079 ft 426 kts 187°
2026-05-04 01:17 35.77600 -80.68232 36091 ft 425 kts 187°
2026-05-04 01:18 35.71694 -80.68109 36093 ft 424 kts 187°
2026-05-04 01:18 35.65807 -80.67980 36095 ft 423 kts 187°
2026-05-04 01:19 35.59956 -80.67842 36110 ft 423 kts 187°
2026-05-04 01:19 35.54080 -80.67701 36120 ft 422 kts 187°
2026-05-04 01:20 35.48212 -80.67566 36124 ft 422 kts 187°
2026-05-04 01:20 35.42336 -80.67434 36123 ft 422 kts 187°
2026-05-04 01:21 35.36461 -80.67306 36099 ft 422 kts 186°
2026-05-04 01:21 35.30625 -80.67178 36110 ft 422 kts 186°
2026-05-04 01:22 35.24747 -80.67051 36119 ft 423 kts 186°
2026-05-04 01:22 35.18901 -80.66911 36123 ft 423 kts 186°
2026-05-04 01:23 35.13014 -80.66774 36098 ft 422 kts 186°
2026-05-04 01:23 35.07146 -80.66649 36116 ft 421 kts 186°
2026-05-04 01:24 35.01339 -80.66517 36119 ft 420 kts 186°
2026-05-04 01:24 34.95491 -80.66386 36125 ft 420 kts 186°
2026-05-04 01:25 34.89645 -80.66266 36123 ft 420 kts 186°
2026-05-04 01:25 34.83811 -80.66131 36115 ft 419 kts 187°
2026-05-04 01:26 34.77999 -80.65996 36126 ft 417 kts 187°
2026-05-04 01:26 34.72229 -80.65865 36130 ft 417 kts 187°
2026-05-04 01:27 34.66440 -80.65717 36128 ft 418 kts 184°
2026-05-04 01:27 34.60653 -80.64193 36089 ft 432 kts 171°
2026-05-04 01:28 34.54922 -80.62005 36100 ft 431 kts 171°
2026-05-04 01:28 34.49233 -80.59864 36117 ft 430 kts 171°
2026-05-04 01:29 34.43525 -80.57720 36131 ft 430 kts 171°
2026-05-04 01:29 34.37809 -80.55558 36127 ft 430 kts 171°
2026-05-04 01:30 34.32106 -80.53398 36108 ft 430 kts 172°
2026-05-04 01:30 34.26381 -80.51897 36123 ft 412 kts 186°
2026-05-04 01:30 34.23553 -80.51970 36127 ft 401 kts 194°
2026-05-04 01:31 34.20864 -80.52531 36129 ft 393 kts 202°
2026-05-04 01:31 34.15560 -80.54139 36143 ft 393 kts 201°
2026-05-04 01:32 34.10245 -80.55734 36071 ft 395 kts 201°
2026-05-04 01:32 34.04907 -80.57320 36097 ft 395 kts 201°
2026-05-04 01:33 33.99578 -80.58908 36110 ft 395 kts 201°
2026-05-04 01:33 33.94282 -80.60483 36114 ft 394 kts 201°
2026-05-04 01:34 33.88959 -80.62080 36114 ft 394 kts 201°
2026-05-04 01:34 33.83645 -80.63668 36089 ft 394 kts 201°
2026-05-04 01:35 33.78329 -80.65246 36107 ft 393 kts 201°
2026-05-04 01:35 33.73065 -80.66807 36122 ft 392 kts 201°
2026-05-04 01:36 33.67765 -80.68377 36129 ft 392 kts 201°
2026-05-04 01:36 33.62476 -80.69939 36139 ft 391 kts 201°
2026-05-04 01:37 33.57193 -80.71497 36123 ft 391 kts 201°
2026-05-04 01:37 33.51917 -80.73057 36140 ft 390 kts 201°
2026-05-04 01:38 33.46696 -80.74609 36143 ft 389 kts 201°
2026-05-04 01:38 33.41441 -80.76165 36151 ft 389 kts 201°
2026-05-04 01:39 33.36176 -80.77699 36146 ft 389 kts 201°
2026-05-04 01:39 33.30926 -80.79236 36125 ft 388 kts 202°
2026-05-04 01:40 33.25709 -80.80760 36131 ft 388 kts 202°
2026-05-04 01:40 33.20469 -80.82292 36133 ft 388 kts 202°
2026-05-04 01:41 33.15227 -80.83824 36130 ft 388 kts 202°
2026-05-04 01:41 33.09995 -80.85352 36133 ft 387 kts 202°
2026-05-04 01:42 33.04757 -80.86880 36132 ft 387 kts 202°
2026-05-04 01:42 32.99559 -80.88397 36150 ft 387 kts 202°
2026-05-04 01:43 32.94317 -80.89917 36148 ft 387 kts 202°
2026-05-04 01:43 32.89081 -80.91438 36154 ft 387 kts 201°
2026-05-04 01:44 32.83848 -80.92966 36139 ft 388 kts 201°
2026-05-04 01:44 32.78639 -80.94477 36115 ft 388 kts 201°
2026-05-04 01:45 32.73402 -80.95988 36116 ft 388 kts 201°
2026-05-04 01:45 32.65535 -80.98258 36132 ft 388 kts 201°
2026-05-04 01:46 32.60287 -80.99767 36138 ft 388 kts 201°
2026-05-04 01:46 32.55074 -81.01266 36105 ft 388 kts 202°
2026-05-04 01:47 32.49625 -81.01951 36130 ft 401 kts 190°
2026-05-04 01:47 32.44049 -81.02042 36136 ft 401 kts 190°
2026-05-04 01:48 32.38467 -81.02131 36137 ft 401 kts 190°
2026-05-04 01:48 32.32926 -81.02229 36156 ft 401 kts 190°
2026-05-04 01:49 32.27353 -81.02332 36128 ft 401 kts 190°
2026-05-04 01:49 32.21774 -81.02434 36145 ft 401 kts 190°
2026-05-04 01:50 32.16194 -81.02537 36149 ft 401 kts 190°
2026-05-04 01:50 32.10611 -81.02635 36124 ft 401 kts 190°
2026-05-04 01:51 32.05077 -81.02731 36125 ft 401 kts 190°
2026-05-04 01:51 31.99505 -81.02824 36083 ft 400 kts 191°
2026-05-04 01:52 31.93937 -81.02960 36106 ft 399 kts 191°
2026-05-04 01:52 31.88387 -81.03130 36116 ft 399 kts 191°
2026-05-04 01:53 31.82869 -81.03290 36127 ft 399 kts 191°
2026-05-04 01:53 31.77321 -81.03440 36134 ft 399 kts 191°
2026-05-04 01:54 31.71766 -81.03582 36110 ft 399 kts 191°
2026-05-04 01:54 31.66213 -81.03732 36129 ft 399 kts 191°
2026-05-04 01:55 31.60663 -81.03893 36138 ft 399 kts 191°
2026-05-04 01:55 31.55170 -81.04112 36144 ft 397 kts 193°
2026-05-04 01:56 31.49665 -81.04501 36147 ft 396 kts 193°
2026-05-04 01:56 31.44162 -81.04902 36122 ft 396 kts 193°
2026-05-04 01:57 31.38658 -81.05254 36140 ft 397 kts 193°
2026-05-04 01:57 31.33143 -81.05594 36147 ft 397 kts 193°
2026-05-04 01:58 31.27675 -81.05939 36153 ft 396 kts 193°
2026-05-04 01:58 31.22155 -81.06244 36156 ft 398 kts 192°
2026-05-04 01:59 31.16599 -81.06348 36118 ft 399 kts 191°
2026-05-04 01:59 31.11047 -81.06405 36139 ft 399 kts 191°
2026-05-04 02:00 31.05532 -81.06501 36148 ft 399 kts 192°
2026-05-04 02:00 30.99989 -81.06619 36152 ft 399 kts 192°
2026-05-04 02:01 30.94444 -81.06735 36156 ft 399 kts 192°
2026-05-04 02:01 30.88903 -81.06852 36131 ft 398 kts 192°
2026-05-04 02:02 30.83355 -81.06965 36153 ft 398 kts 192°
2026-05-04 02:02 30.77862 -81.07077 36169 ft 398 kts 192°
2026-05-04 02:03 30.72326 -81.07195 36163 ft 398 kts 192°
2026-05-04 02:03 30.66793 -81.07309 36155 ft 398 kts 192°
2026-05-04 02:04 30.61263 -81.07426 36115 ft 396 kts 193°
2026-05-04 02:04 30.55816 -81.07718 36137 ft 393 kts 194°
2026-05-04 02:05 30.50356 -81.08104 36150 ft 393 kts 194°
2026-05-04 02:05 30.44901 -81.08469 36156 ft 393 kts 194°
2026-05-04 02:06 30.39435 -81.08801 36157 ft 394 kts 194°
2026-05-04 02:06 30.36683 -81.08965 36272 ft 398 kts 194°
2026-05-04 02:06 30.33908 -81.09132 36400 ft 402 kts 194°
2026-05-04 02:07 30.31150 -81.09299 36640 ft 402 kts 194°
2026-05-04 02:07 30.28352 -81.09466 36894 ft 403 kts 194°
2026-05-04 02:07 30.25548 -81.09631 37083 ft 405 kts 194°
2026-05-04 02:07 30.22745 -81.09790 37023 ft 399 kts 194°
2026-05-04 02:08 30.19990 -81.09942 36624 ft 394 kts 194°
2026-05-04 02:08 30.17262 -81.10099 36221 ft 392 kts 194°
2026-05-04 02:08 30.11806 -81.10437 36144 ft 395 kts 194°
2026-05-04 02:09 30.06349 -81.10772 36150 ft 395 kts 194°
2026-05-04 02:09 30.00863 -81.11101 36147 ft 394 kts 194°
2026-05-04 02:10 29.95389 -81.11427 36149 ft 394 kts 194°
2026-05-04 02:10 29.89910 -81.11747 36156 ft 394 kts 194°
2026-05-04 02:11 29.84409 -81.11988 36141 ft 401 kts 189°
2026-05-04 02:11 29.81630 -81.11630 36138 ft 415 kts 181°
2026-05-04 02:11 29.78804 -81.10735 36138 ft 430 kts 172°
2026-05-04 02:12 29.73232 -81.08021 36134 ft 435 kts 170°
2026-05-04 02:12 29.67666 -81.05278 36130 ft 435 kts 170°
2026-05-04 02:13 29.62089 -81.02546 36122 ft 435 kts 170°
2026-05-04 02:13 29.56522 -80.99832 36123 ft 435 kts 170°
2026-05-04 02:14 29.50981 -80.97132 36079 ft 435 kts 171°
2026-05-04 02:14 29.45424 -80.94418 36122 ft 433 kts 171°
2026-05-04 02:15 29.39885 -80.91714 36114 ft 433 kts 171°
2026-05-04 02:15 29.34352 -80.89018 36118 ft 431 kts 171°
2026-05-04 02:16 29.28842 -80.86345 36129 ft 430 kts 172°
2026-05-04 02:16 29.23380 -80.83701 36127 ft 430 kts 171°
2026-05-04 02:17 29.17878 -80.81031 36123 ft 429 kts 172°
2026-05-04 02:17 29.12386 -80.78365 36123 ft 428 kts 172°
2026-05-04 02:18 29.06902 -80.75717 36122 ft 428 kts 172°
2026-05-04 02:18 29.01456 -80.73090 36118 ft 428 kts 172°
2026-05-04 02:19 28.95973 -80.70443 36115 ft 427 kts 172°
2026-05-04 02:19 28.90466 -80.67933 36088 ft 424 kts 174°
2026-05-04 02:20 28.84956 -80.65510 36101 ft 424 kts 174°
2026-05-04 02:20 28.79485 -80.63094 36091 ft 425 kts 174°
2026-05-04 02:21 28.73978 -80.60638 36083 ft 425 kts 174°
2026-05-04 02:21 28.68474 -80.58179 36076 ft 425 kts 174°
2026-05-04 02:22 28.62967 -80.55725 36074 ft 425 kts 174°
2026-05-04 02:22 28.57490 -80.53295 36046 ft 426 kts 173°
2026-05-04 02:23 28.51968 -80.50856 36073 ft 425 kts 173°
2026-05-04 02:23 28.46459 -80.48413 36073 ft 426 kts 173°
2026-05-04 02:24 28.40938 -80.45966 36072 ft 425 kts 173°
2026-05-04 02:24 28.35425 -80.43520 36071 ft 426 kts 173°
2026-05-04 02:25 28.29944 -80.41087 36062 ft 427 kts 173°
2026-05-04 02:25 28.24397 -80.38639 36039 ft 428 kts 173°
2026-05-04 02:26 28.21630 -80.37413 35792 ft 425 kts 172°
2026-05-04 02:26 28.18894 -80.36194 35556 ft 422 kts 172°
2026-05-04 02:26 28.16168 -80.34982 35320 ft 420 kts 172°
2026-05-04 02:26 28.13454 -80.33781 35094 ft 417 kts 172°
2026-05-04 02:27 28.10759 -80.32592 34858 ft 415 kts 172°
2026-05-04 02:27 28.08104 -80.31437 34640 ft 412 kts 173°
2026-05-04 02:27 28.05424 -80.30343 34407 ft 408 kts 174°
2026-05-04 02:27 28.02749 -80.29303 34179 ft 405 kts 175°
2026-05-04 02:28 28.00084 -80.28292 33863 ft 403 kts 174°
2026-05-04 02:28 27.97423 -80.27287 33602 ft 403 kts 174°
2026-05-04 02:28 27.94775 -80.26281 33350 ft 402 kts 174°
2026-05-04 02:28 27.92126 -80.25264 33087 ft 401 kts 173°
2026-05-04 02:29 27.89485 -80.24239 32841 ft 401 kts 173°
2026-05-04 02:29 27.86853 -80.23211 32592 ft 400 kts 173°
2026-05-04 02:29 27.84266 -80.22199 32340 ft 399 kts 173°
2026-05-04 02:29 27.81644 -80.21174 32100 ft 398 kts 173°
2026-05-04 02:30 27.79029 -80.20152 31853 ft 397 kts 173°
2026-05-04 02:30 27.76422 -80.19134 31611 ft 396 kts 173°
2026-05-04 02:30 27.73822 -80.18120 31369 ft 395 kts 173°
2026-05-04 02:30 27.71226 -80.17108 31099 ft 394 kts 173°
2026-05-04 02:31 27.68629 -80.16099 30841 ft 394 kts 172°
2026-05-04 02:31 27.66046 -80.15095 30605 ft 392 kts 172°
2026-05-04 02:31 27.63471 -80.14096 30369 ft 391 kts 172°
2026-05-04 02:31 27.60941 -80.13111 30142 ft 388 kts 172°
2026-05-04 02:32 27.58412 -80.12091 29732 ft 386 kts 171°
2026-05-04 02:32 27.55899 -80.11049 29330 ft 383 kts 171°
2026-05-04 02:32 27.53415 -80.10007 28929 ft 380 kts 171°
2026-05-04 02:32 27.50944 -80.08971 28548 ft 377 kts 171°
2026-05-04 02:33 27.48496 -80.07953 28165 ft 374 kts 171°
2026-05-04 02:33 27.46067 -80.06950 27778 ft 371 kts 171°
2026-05-04 02:33 27.43651 -80.05956 27396 ft 368 kts 171°
2026-05-04 02:33 27.41286 -80.04985 27006 ft 365 kts 171°
2026-05-04 02:34 27.38906 -80.04010 26625 ft 363 kts 171°
2026-05-04 02:34 27.36535 -80.03123 26243 ft 357 kts 174°
2026-05-04 02:34 27.34167 -80.02357 25859 ft 352 kts 176°
2026-05-04 02:34 27.31810 -80.01662 25475 ft 349 kts 176°
2026-05-04 02:35 27.29468 -80.00992 25084 ft 346 kts 176°
2026-05-04 02:35 27.27136 -80.00321 24683 ft 345 kts 176°
2026-05-04 02:35 27.24813 -79.99630 24282 ft 346 kts 175°
2026-05-04 02:35 27.22502 -79.98855 23874 ft 347 kts 173°
2026-05-04 02:36 27.20234 -79.98036 23435 ft 347 kts 172°
2026-05-04 02:36 27.17943 -79.97182 22998 ft 346 kts 172°
2026-05-04 02:36 27.15672 -79.96333 22585 ft 343 kts 172°
2026-05-04 02:36 27.13412 -79.95496 22177 ft 341 kts 172°
2026-05-04 02:37 27.11168 -79.94674 21735 ft 338 kts 172°
2026-05-04 02:37 27.08938 -79.93863 21370 ft 336 kts 172°
2026-05-04 02:37 27.06718 -79.93060 20967 ft 334 kts 171°
2026-05-04 02:37 27.04516 -79.92222 20566 ft 335 kts 170°
2026-05-04 02:38 27.02324 -79.91341 20164 ft 334 kts 169°
2026-05-04 02:38 27.00141 -79.90445 19764 ft 334 kts 169°
2026-05-04 02:38 26.97990 -79.89558 19374 ft 334 kts 168°
2026-05-04 02:38 26.95811 -79.88662 18967 ft 333 kts 168°
2026-05-04 02:39 26.93636 -79.87775 18568 ft 333 kts 168°
2026-05-04 02:39 26.91450 -79.86890 18101 ft 334 kts 168°
2026-05-04 02:39 26.89268 -79.85991 17677 ft 335 kts 164°
2026-05-04 02:39 26.87297 -79.84538 17376 ft 345 kts 147°
2026-05-04 02:40 26.85444 -79.82874 17022 ft 338 kts 151°
2026-05-04 02:40 26.83539 -79.81339 16661 ft 336 kts 152°
2026-05-04 02:40 26.81637 -79.79829 16303 ft 334 kts 152°
2026-05-04 02:40 26.79732 -79.78358 15939 ft 330 kts 156°
2026-05-04 02:41 26.77764 -79.77078 15586 ft 327 kts 155°
2026-05-04 02:41 26.75845 -79.75781 15252 ft 326 kts 155°
2026-05-04 02:41 26.73914 -79.74475 14932 ft 324 kts 155°
2026-05-04 02:41 26.71983 -79.73175 14596 ft 323 kts 155°
2026-05-04 02:42 26.70064 -79.71890 14270 ft 321 kts 155°
2026-05-04 02:42 26.68150 -79.70616 13964 ft 320 kts 155°
2026-05-04 02:42 26.66240 -79.69351 13600 ft 318 kts 155°
2026-05-04 02:42 26.64341 -79.68097 13239 ft 317 kts 155°
2026-05-04 02:43 26.62419 -79.67018 12898 ft 308 kts 168°
2026-05-04 02:43 26.60357 -79.66672 12551 ft 295 kts 188°
2026-05-04 02:43 26.58395 -79.67117 12205 ft 285 kts 207°
2026-05-04 02:43 26.56727 -79.68241 11851 ft 278 kts 224°
2026-05-04 02:44 26.55433 -79.69814 11492 ft 275 kts 232°
2026-05-04 02:44 26.54199 -79.71443 11143 ft 275 kts 232°
2026-05-04 02:44 26.52962 -79.73069 10806 ft 274 kts 232°
2026-05-04 02:44 26.51731 -79.74693 10479 ft 273 kts 232°
2026-05-04 02:45 26.50503 -79.76310 10162 ft 272 kts 232°
2026-05-04 02:45 26.49298 -79.77892 9865 ft 271 kts 232°
2026-05-04 02:45 26.48081 -79.79490 9527 ft 269 kts 232°
2026-05-04 02:45 26.46872 -79.81074 9178 ft 268 kts 231°
2026-05-04 02:46 26.45664 -79.82656 8840 ft 267 kts 231°
2026-05-04 02:46 26.44462 -79.84233 8503 ft 266 kts 231°
2026-05-04 02:46 26.43263 -79.85806 8174 ft 266 kts 231°
2026-05-04 02:46 26.42070 -79.87369 8001 ft 264 kts 231°
2026-05-04 02:47 26.40873 -79.88936 8018 ft 267 kts 231°
2026-05-04 02:47 26.39678 -79.90497 8010 ft 259 kts 231°
2026-05-04 02:47 26.38497 -79.91935 8002 ft 246 kts 224°
2026-05-04 02:47 26.37140 -79.93021 8015 ft 235 kts 213°
2026-05-04 02:48 26.35749 -79.93903 8015 ft 227 kts 213°
2026-05-04 02:48 26.34383 -79.94779 8016 ft 226 kts 213°
2026-05-04 02:48 26.33038 -79.95644 8019 ft 226 kts 213°
2026-05-04 02:48 26.31678 -79.96520 8017 ft 225 kts 214°
2026-05-04 02:49 26.30320 -79.97394 8019 ft 226 kts 213°
2026-05-04 02:49 26.28957 -79.98271 8020 ft 226 kts 213°
2026-05-04 02:49 26.27595 -79.99147 8019 ft 226 kts 213°
2026-05-04 02:49 26.26237 -80.00020 8020 ft 226 kts 213°
2026-05-04 02:50 26.24876 -80.00896 8018 ft 226 kts 213°
2026-05-04 02:50 26.23515 -80.01771 8019 ft 226 kts 213°
2026-05-04 02:50 26.22153 -80.02648 8019 ft 226 kts 213°
2026-05-04 02:50 26.20792 -80.03522 8009 ft 226 kts 213°
2026-05-04 02:51 26.19464 -80.04449 8016 ft 224 kts 221°
2026-05-04 02:51 26.18361 -80.05643 7814 ft 220 kts 233°
2026-05-04 02:51 26.17562 -80.07056 7526 ft 219 kts 245°
2026-05-04 02:51 26.17035 -80.08636 7234 ft 218 kts 252°
2026-05-04 02:52 26.16557 -80.10238 6946 ft 218 kts 251°
2026-05-04 02:52 26.16073 -80.11836 6666 ft 218 kts 251°
2026-05-04 02:52 26.15590 -80.13428 6397 ft 217 kts 251°
2026-05-04 02:52 26.15156 -80.15029 6111 ft 216 kts 258°
2026-05-04 02:53 26.15018 -80.16700 5798 ft 217 kts 269°
2026-05-04 02:53 26.15037 -80.18382 5492 ft 217 kts 269°
2026-05-04 02:53 26.15048 -80.20054 5208 ft 216 kts 269°
2026-05-04 02:53 26.15055 -80.21725 4899 ft 216 kts 269°
2026-05-04 02:54 26.15061 -80.23391 4609 ft 215 kts 269°
2026-05-04 02:54 26.15068 -80.25029 4299 ft 215 kts 269°
2026-05-04 02:54 26.15082 -80.26691 4035 ft 214 kts 270°
2026-05-04 02:54 26.15104 -80.28355 4008 ft 216 kts 269°
2026-05-04 02:55 26.15112 -80.31707 4011 ft 217 kts 269°
2026-05-04 02:55 26.15098 -80.33380 4011 ft 216 kts 268°
2026-05-04 02:55 26.15077 -80.35055 4011 ft 216 kts 268°
2026-05-04 02:56 26.15051 -80.36730 4011 ft 216 kts 268°
2026-05-04 02:56 26.15021 -80.38403 4012 ft 216 kts 268°
2026-05-04 02:56 26.14912 -80.40069 4009 ft 216 kts 254°
2026-05-04 02:56 26.14172 -80.41450 3763 ft 214 kts 221°
2026-05-04 02:57 26.12830 -80.42128 3447 ft 217 kts 190°
2026-05-04 02:57 26.11326 -80.42034 3109 ft 221 kts 160°
2026-05-04 02:57 26.10111 -80.41006 3004 ft 225 kts 129°
2026-05-04 02:57 26.09221 -80.39564 3009 ft 227 kts 123°
2026-05-04 02:58 26.08389 -80.38070 3008 ft 227 kts 122°
2026-05-04 02:58 26.07819 -80.36446 3005 ft 223 kts 97°
2026-05-04 02:58 26.07776 -80.34768 3000 ft 213 kts 90°
2026-05-04 02:58 26.07773 -80.33135 2837 ft 210 kts 91°
2026-05-04 02:59 26.07768 -80.31538 2597 ft 208 kts 91°
2026-05-04 02:59 26.07761 -80.29936 2356 ft 206 kts 91°
2026-05-04 02:59 26.07754 -80.28368 2084 ft 199 kts 90°
2026-05-04 02:59 26.07746 -80.26851 1821 ft 192 kts 90°
2026-05-04 03:00 26.07739 -80.25417 1576 ft 178 kts 90°
2026-05-04 03:00 26.07733 -80.24119 1365 ft 158 kts 89°
2026-05-04 03:00 26.07727 -80.22946 1155 ft 148 kts 89°
2026-05-04 03:00 26.07721 -80.21817 974 ft 144 kts 89°
2026-05-04 03:01 26.07716 -80.20723 790 ft 143 kts 89°
2026-05-04 03:01 26.07710 -80.19621 600 ft 142 kts 89°
2026-05-04 03:01 26.07707 -80.18531 407 ft 141 kts 88°
2026-05-04 03:01 26.07700 -80.17445 221 ft 141 kts 89°
2026-05-04 03:02 26.07691 -80.16355 50 ft 140 kts 88°
2026-05-04 03:02 26.07689 -80.15381 16 ft 105 kts 91°
2026-05-04 03:02 26.07681 -80.14802 19 ft 37 kts 94°
2026-05-04 03:02 26.07627 -80.14603 18 ft 9 kts 124°
2026-05-04 03:03 26.07565 -80.14604 17 ft 11 kts 235°
2026-05-04 03:03 26.07558 -80.14696 17 ft 13 kts 264°
2026-05-04 03:03 26.07491 -80.14772 16 ft 16 kts 212°
2026-05-04 03:03 26.07400 -80.14848 16 ft 18 kts 195°
2026-05-04 03:04 26.07268 -80.14855 16 ft 20 kts 180°
2026-05-04 03:04 26.07126 -80.14856 16 ft 18 kts 179°
2026-05-04 03:04 26.07023 -80.14791 17 ft 19 kts 135°
2026-05-04 03:04 26.06919 -80.14687 17 ft 20 kts 141°
2026-05-04 03:05 26.06825 -80.14584 17 ft 18 kts 115°
2026-05-04 03:05 26.06820 -80.14467 16 ft 14 kts 88°
2026-05-04 03:05 26.06837 -80.14387 16 ft 10 kts 31°
2026-05-04 03:05 26.06883 -80.14385 16 ft 0 kts 359°